,,Stat6,,Stat2,,Stat8,,Stat9,,Stat10,,Wind1,,Wind1,
time,status,PA1M_AVG,status,PR1M_SUM,status,RH1M_AVG,status,SR1M_AVG,status,TA1M_AVG,status,W1dAve1m,status,W1sAve1m,
2006-11-14, 17:38:00,VALID,918.536,VALID,0,VALID,74.0287,VALID,705.044,VALID,24.9219,VALID,312,VALID,3.12285,
2006-11-14, 17:39:00,VALID,918.537,VALID,0,VALID,73.9095,VALID,619.664,VALID,24.9176,VALID,304,VALID,3.09801,
2006-11-14, 17:40:00,VALID,918.508,VALID,0,VALID,74.3622,VALID,594.991,VALID,24.9143,VALID,302,VALID,3.72301,
2006-11-14, 17:41:00,VALID,918.513,VALID,0,VALID,75.0959,VALID,734.794,VALID,24.9625,VALID,299,VALID,2.94121,
2006-11-14, 17:42:00,VALID,918.493,VALID,0,VALID,75.5765,VALID,647.649,VALID,25.0087,VALID,308,VALID,2.90011,
2006-11-14, 17:43:00,VALID,918.478,VALID,0,VALID,76.3929,VALID,750.587,VALID,25.0991,VALID,292,VALID,3.02139,
2006-11-14, 17:44:00,VALID,918.471,VALID,0,VALID,74.8543,VALID,758.228,VALID,25.1347,VALID,294,VALID,3.51246,
2006-11-14, 17:45:00,VALID,918.461,VALID,0,VALID,74.8428,VALID,859.926,VALID,25.2594,VALID,290,VALID,3.03834,
2006-11-14, 17:46:00,VALID,918.457,VALID,0,VALID,74.3367,VALID,897.182,VALID,25.4346,VALID,292,VALID,2.46187,
2006-11-14, 17:47:00,VALID,918.422,VALID,0,VALID,71.5545,VALID,824.419,VALID,25.5671,VALID,298,VALID,3.04106,
2006-11-14, 17:48:00,VALID,918.417,VALID,0,VALID,73.2902,VALID,923.587,VALID,25.6896,VALID,317,VALID,2.01432,
2006-11-14, 17:49:00,VALID,918.409,VALID,0,VALID,73.9044,VALID,941.247,VALID,25.9585,VALID,322,VALID,1.42894,
2006-11-14, 17:50:00,VALID,918.401,VALID,0,VALID,73.7569,VALID,600.918,VALID,26.2223,VALID,360,VALID,1.68184,
2006-11-14, 17:51:00,VALID,918.388,VALID,0,VALID,70.3286,VALID,470.403,VALID,26.1961,VALID,321,VALID,2.2901,
2006-11-14, 17:52:00,VALID,918.385,VALID,0,VALID,72.2055,VALID,375.293,VALID,26.1017,VALID,355,VALID,1.97248,
2006-11-14, 17:53:00,VALID,918.366,VALID,0,VALID,72.0237,VALID,759.62,VALID,26.0186,VALID,347,VALID,2.42783,
2006-11-14, 17:54:00,VALID,918.351,VALID,0,VALID,70.1506,VALID,556.003,VALID,25.9375,VALID,311,VALID,2.57049,
2006-11-14, 17:55:00,VALID,918.338,VALID,0,VALID,71.2366,VALID,705.18,VALID,25.8858,VALID,271,VALID,1.75226,
2006-11-14, 17:56:00,VALID,918.328,VALID,0,VALID,72.7129,VALID,659.484,VALID,26.0109,VALID,307,VALID,1.96429,
2006-11-14, 17:57:00,VALID,918.311,VALID,0,VALID,70.705,VALID,637.851,VALID,26.0823,VALID,316,VALID,2.44234,
2006-11-14, 17:58:00,VALID,918.304,VALID,0,VALID,71.5621,VALID,706.759,VALID,26.0823,VALID,344,VALID,2.97567,
2006-11-14, 17:59:00,VALID,918.3,VALID,0,VALID,72.4192,VALID,882.867,VALID,26.1667,VALID,360,VALID,1.04464,
2006-11-14, 18:00:00,VALID,918.29,VALID,0,VALID,72.9456,VALID,879.658,VALID,26.444,VALID,322,VALID,1.63867,
2006-11-14, 18:01:00,VALID,918.287,VALID,0,VALID,68.0741,VALID,836.306,VALID,26.6635,VALID,346,VALID,1.71429,
2006-11-14, 18:02:00,VALID,918.288,VALID,0,VALID,67.3887,VALID,785.38,VALID,26.6642,VALID,19,VALID,3.06268,
2006-11-14, 18:03:00,VALID,918.265,VALID,0,VALID,68.2229,VALID,735.406,VALID,26.4764,VALID,18,VALID,3.21341,
2006-11-14, 18:04:00,VALID,918.262,VALID,0,VALID,68.0563,VALID,549.109,VALID,26.1941,VALID,348,VALID,2.56505,
2006-11-14, 18:05:00,VALID,918.251,VALID,0,VALID,71.2238,VALID,811.87,VALID,26.0228,VALID,329,VALID,2.7625,
2006-11-14, 18:06:00,VALID,918.251,VALID,0,VALID,71.2048,VALID,926.695,VALID,26.0968,VALID,312,VALID,1.79724,
2006-11-14, 18:07:00,VALID,918.231,VALID,0,VALID,70.9441,VALID,927.884,VALID,26.2882,VALID,334,VALID,1.13863,
2006-11-14, 18:08:00,VALID,918.208,VALID,0,VALID,71.0802,VALID,963.662,VALID,26.5565,VALID,18,VALID,1.23086,
2006-11-14, 18:09:00,VALID,918.145,VALID,0,VALID,68.673,VALID,830.583,VALID,26.6913,VALID,310,VALID,3.00226,
2006-11-14, 18:10:00,VALID,918.141,VALID,0,VALID,71.3141,VALID,829.446,VALID,26.6111,VALID,314,VALID,2.59884,
2006-11-14, 18:11:00,VALID,918.158,VALID,0,VALID,70.2867,VALID,905.927,VALID,26.6874,VALID,3,VALID,2.18178,
2006-11-14, 18:12:00,VALID,918.154,VALID,0,VALID,70.5003,VALID,910.02,VALID,26.7624,VALID,350,VALID,2.04315,
2006-11-14, 18:13:00,VALID,918.125,VALID,0,VALID,69.0697,VALID,809.663,VALID,26.7718,VALID,336,VALID,2.75857,
2006-11-14, 18:14:00,VALID,918.086,VALID,0,VALID,70.9543,VALID,705.197,VALID,26.6561,VALID,314,VALID,2.58612,
2006-11-14, 18:15:00,VALID,918.08,VALID,0,VALID,70.3057,VALID,848.634,VALID,26.6454,VALID,288,VALID,4.0744,
2006-11-14, 18:16:00,VALID,918.079,VALID,0,VALID,68.5649,VALID,825.031,VALID,26.5814,VALID,295,VALID,3.98147,
2006-11-14, 18:17:00,VALID,918.073,VALID,0,VALID,68.5128,VALID,812.108,VALID,26.4589,VALID,293,VALID,3.1293,
2006-11-14, 18:18:00,VALID,918.063,VALID,0,VALID,69.5822,VALID,733.538,VALID,26.3483,VALID,297,VALID,3.43477,
2006-11-14, 18:19:00,VALID,918.084,VALID,0,VALID,71.131,VALID,760.181,VALID,26.251,VALID,348,VALID,1.64499,
2006-11-14, 18:20:00,VALID,918.068,VALID,0,VALID,72.6557,VALID,747.309,VALID,26.3838,VALID,318,VALID,1.48257,
2006-11-14, 18:21:00,VALID,918.064,VALID,0,VALID,70.8068,VALID,693.684,VALID,26.5907,VALID,331,VALID,1.43178,
2006-11-14, 18:22:00,VALID,918.073,VALID,0,VALID,69.6343,VALID,674.19,VALID,26.5645,VALID,327,VALID,2.27965,
2006-11-14, 18:23:00,VALID,918.074,VALID,0,VALID,70.143,VALID,644.287,VALID,26.4805,VALID,344,VALID,1.87407,
2006-11-14, 18:24:00,VALID,918.016,VALID,0,VALID,71.1069,VALID,616.065,VALID,26.4579,VALID,349,VALID,2.54368,
2006-11-14, 18:25:00,VALID,918.023,VALID,0,VALID,70.7177,VALID,571.405,VALID,26.3799,VALID,349,VALID,2.35637,
2006-11-14, 18:26:00,VALID,918,VALID,0,VALID,70.1264,VALID,521.464,VALID,26.2222,VALID,354,VALID,3.13991,
2006-11-14, 18:27:00,VALID,917.984,VALID,0,VALID,70.068,VALID,488.827,VALID,25.9963,VALID,340,VALID,2.76189,
2006-11-14, 18:28:00,VALID,918.003,VALID,0,VALID,71.6804,VALID,446.918,VALID,25.8929,VALID,351,VALID,2.03688,
2006-11-14, 18:29:00,VALID,917.962,VALID,0,VALID,70.3859,VALID,480.982,VALID,25.8247,VALID,336,VALID,2.08389,
2006-11-14, 18:30:00,VALID,917.96,VALID,0,VALID,71.1654,VALID,578.486,VALID,25.793,VALID,1,VALID,2.57212,
2006-11-14, 18:31:00,VALID,917.945,VALID,0,VALID,71.8317,VALID,665.343,VALID,25.7665,VALID,334,VALID,2.60938,
2006-11-14, 18:32:00,VALID,917.923,VALID,0,VALID,70.9428,VALID,638.921,VALID,25.7474,VALID,326,VALID,2.25949,
2006-11-14, 18:33:00,VALID,917.946,VALID,0,VALID,71.9576,VALID,650.943,VALID,25.8156,VALID,332,VALID,1.9269,
2006-11-14, 18:34:00,VALID,917.927,VALID,0,VALID,70.9695,VALID,685.143,VALID,25.9026,VALID,19,VALID,1.52135,
2006-11-14, 18:35:00,VALID,917.901,VALID,0,VALID,70.073,VALID,698.965,VALID,26.0348,VALID,346,VALID,2.24886,
2006-11-14, 18:36:00,VALID,917.91,VALID,0,VALID,70.8665,VALID,744.949,VALID,26.048,VALID,296,VALID,2.85975,
2006-11-14, 18:37:00,VALID,917.901,VALID,0,VALID,69.1155,VALID,742.962,VALID,26.0991,VALID,311,VALID,3.274,
2006-11-14, 18:38:00,VALID,917.903,VALID,0,VALID,69.5987,VALID,705.995,VALID,26.1634,VALID,306,VALID,2.43129,
2006-11-14, 18:39:00,VALID,917.902,VALID,0,VALID,68.3195,VALID,645.458,VALID,26.2623,VALID,338,VALID,1.57694,
2006-11-14, 18:40:00,VALID,917.883,VALID,0,VALID,67.952,VALID,599.186,VALID,26.2226,VALID,312,VALID,2.06882,
2006-11-14, 18:41:00,VALID,917.86,VALID,0,VALID,69.2401,VALID,614.01,VALID,26.187,VALID,324,VALID,2.50967,
2006-11-14, 18:42:00,VALID,917.856,VALID,0,VALID,69.3164,VALID,627.849,VALID,26.1123,VALID,303,VALID,1.94548,
2006-11-14, 18:43:00,VALID,917.839,VALID,0,VALID,69.23,VALID,628.919,VALID,26.1489,VALID,331,VALID,1.97514,
2006-11-14, 18:44:00,VALID,917.823,VALID,0,VALID,68.0525,VALID,595.84,VALID,26.1091,VALID,355,VALID,1.86481,
2006-11-14, 18:45:00,VALID,917.803,VALID,0,VALID,70.602,VALID,679.42,VALID,26.0681,VALID,320,VALID,1.96039,
2006-11-14, 18:46:00,VALID,917.798,VALID,0,VALID,71.5011,VALID,680.031,VALID,26.0667,VALID,305,VALID,2.14463,
2006-11-14, 18:47:00,VALID,917.785,VALID,0,VALID,71.0802,VALID,666.583,VALID,26.1576,VALID,340,VALID,1.9758,
2006-11-14, 18:48:00,VALID,917.773,VALID,0,VALID,69.5669,VALID,673.545,VALID,26.1385,VALID,348,VALID,2.70273,
2006-11-14, 18:49:00,VALID,917.759,VALID,0,VALID,70.3045,VALID,689.439,VALID,26.0832,VALID,352,VALID,2.42478,
2006-11-14, 18:50:00,VALID,917.766,VALID,0,VALID,70.4202,VALID,649.788,VALID,26.038,VALID,344,VALID,1.92597,
2006-11-14, 18:51:00,VALID,917.759,VALID,0,VALID,71.7935,VALID,434.319,VALID,26.0735,VALID,302,VALID,1.29414,
2006-11-14, 18:52:00,VALID,917.748,VALID,0,VALID,71.1666,VALID,483.088,VALID,26.1705,VALID,355,VALID,1.28212,
2006-11-14, 18:53:00,VALID,917.737,VALID,0,VALID,70.9517,VALID,706.895,VALID,26.2513,VALID,339,VALID,1.44695,
2006-11-14, 18:54:00,VALID,917.7,VALID,0,VALID,70.5397,VALID,661.76,VALID,26.3001,VALID,319,VALID,1.64462,
2006-11-14, 18:55:00,VALID,917.705,VALID,0,VALID,68.3882,VALID,611.429,VALID,26.3253,VALID,78,VALID,0.825781,
2006-11-14, 18:56:00,VALID,917.678,VALID,0,VALID,68.7862,VALID,631.228,VALID,26.3777,VALID,250,VALID,0.768864,
2006-11-14, 18:57:00,VALID,917.697,VALID,0,VALID,69.1028,VALID,441.654,VALID,26.5426,VALID,16,VALID,1.85175,
2006-11-14, 18:58:00,VALID,917.675,VALID,0,VALID,68.4123,VALID,424.877,VALID,26.5678,VALID,54,VALID,1.78961,
2006-11-14, 18:59:00,VALID,917.645,VALID,0,VALID,69.4385,VALID,442.843,VALID,26.4546,VALID,17,VALID,2.98038,
2006-11-14, 19:00:00,VALID,917.646,VALID,0,VALID,69.5911,VALID,425.625,VALID,26.1537,VALID,30,VALID,3.46342,
2006-11-14, 19:01:00,VALID,917.631,VALID,0,VALID,68.5179,VALID,545.611,VALID,25.9475,VALID,18,VALID,1.64535,
2006-11-14, 19:02:00,VALID,917.582,VALID,0,VALID,68.9489,VALID,507.149,VALID,25.9152,VALID,325,VALID,1.90732,
2006-11-14, 19:03:00,VALID,917.576,VALID,0,VALID,69.8823,VALID,543.149,VALID,25.9249,VALID,327,VALID,0.855469,
2006-11-14, 19:04:00,VALID,917.559,VALID,0,VALID,71.5265,VALID,505.961,VALID,26.0509,VALID,27,VALID,1.92721,
2006-11-14, 19:05:00,VALID,917.557,VALID,0,VALID,69.9281,VALID,369.435,VALID,26.0648,VALID,10,VALID,1.8003,
2006-11-14, 19:06:00,VALID,917.547,VALID,0,VALID,70.8945,VALID,338.088,VALID,26.103,VALID,349,VALID,1.60461,
2006-11-14, 19:07:00,VALID,917.539,VALID,0,VALID,69.881,VALID,339.854,VALID,26.0603,VALID,332,VALID,1.28267,
2006-11-14, 19:08:00,VALID,917.529,VALID,0,VALID,70.8907,VALID,329.241,VALID,26.0771,VALID,324,VALID,1.97238,
2006-11-14, 19:09:00,VALID,917.527,VALID,0,VALID,71.2493,VALID,341.756,VALID,25.9546,VALID,360,VALID,2.3391,
2006-11-14, 19:10:00,VALID,917.503,VALID,0,VALID,72.0949,VALID,362.66,VALID,25.8063,VALID,348,VALID,1.68641,
2006-11-14, 19:11:00,VALID,917.466,VALID,0,VALID,73.8446,VALID,534.132,VALID,25.7542,VALID,325,VALID,1.37464,
2006-11-14, 19:12:00,VALID,917.457,VALID,0,VALID,75.6795,VALID,741.672,VALID,25.8874,VALID,284,VALID,1.11062,
2006-11-14, 19:13:00,VALID,917.428,VALID,0,VALID,73.6234,VALID,614.18,VALID,26.1453,VALID,327,VALID,1.15139,
2006-11-14, 19:14:00,VALID,917.415,VALID,0,VALID,70.8576,VALID,841.349,VALID,26.2222,VALID,9,VALID,1.87463,
2006-11-14, 19:15:00,VALID,917.391,VALID,0,VALID,72.3479,VALID,950.111,VALID,26.2966,VALID,342,VALID,1.21294,
2006-11-14, 19:16:00,VALID,917.385,VALID,0,VALID,71.702,VALID,843.047,VALID,26.4876,VALID,348,VALID,1.1449,
2006-11-14, 19:17:00,VALID,917.394,VALID,0,VALID,69.9319,VALID,628.511,VALID,26.6945,VALID,12,VALID,1.43407,
2006-11-14, 19:18:00,VALID,917.358,VALID,0,VALID,67.7231,VALID,583.954,VALID,26.6977,VALID,336,VALID,2.45822,
2006-11-14, 19:19:00,VALID,917.391,VALID,0,VALID,66.4998,VALID,902.854,VALID,26.4912,VALID,326,VALID,1.9793,
2006-11-14, 19:20:00,VALID,917.373,VALID,0,VALID,67.3455,VALID,923.078,VALID,26.5616,VALID,265,VALID,0.642485,
2006-11-14, 19:21:00,VALID,917.381,VALID,0,VALID,68.673,VALID,955.443,VALID,26.9205,VALID,280,VALID,0.710751,
2006-11-14, 19:22:00,VALID,917.377,VALID,0,VALID,67.7663,VALID,886.773,VALID,27.2661,VALID,29,VALID,1.48438,
2006-11-14, 19:23:00,VALID,917.357,VALID,0,VALID,67.5349,VALID,977.552,VALID,27.3408,VALID,32,VALID,1.61364,
2006-11-14, 19:24:00,VALID,917.34,VALID,0,VALID,68.5471,VALID,509.849,VALID,27.2309,VALID,13,VALID,2.09411,
2006-11-14, 19:25:00,VALID,917.316,VALID,0,VALID,68.7048,VALID,610.75,VALID,27.1015,VALID,18,VALID,1.24399,
2006-11-14, 19:26:00,VALID,917.293,VALID,0,VALID,67.0593,VALID,520.547,VALID,26.988,VALID,337,VALID,1.93883,
2006-11-14, 19:27:00,VALID,917.261,VALID,0,VALID,67.189,VALID,496.316,VALID,26.7941,VALID,306,VALID,0.724964,
2006-11-14, 19:28:00,VALID,917.238,VALID,0,VALID,68.5713,VALID,482.154,VALID,26.8225,VALID,353,VALID,2.22238,
2006-11-14, 19:29:00,VALID,917.235,VALID,0,VALID,68.336,VALID,520.242,VALID,26.6311,VALID,325,VALID,2.40189,
2006-11-14, 19:30:00,VALID,917.217,VALID,0,VALID,69.5377,VALID,508.321,VALID,26.4885,VALID,321,VALID,1.26277,
2006-11-14, 19:31:00,VALID,917.199,VALID,0,VALID,68.9248,VALID,528.104,VALID,26.5484,VALID,40,VALID,1.18027,
2006-11-14, 19:32:00,VALID,917.176,VALID,0,VALID,69.1168,VALID,681.033,VALID,26.6221,VALID,40,VALID,0.801562,
2006-11-14, 19:33:00,VALID,917.144,VALID,0,VALID,68.8231,VALID,625.285,VALID,26.797,VALID,6,VALID,0.590523,
2006-11-14, 19:34:00,VALID,917.129,VALID,0,VALID,68.9375,VALID,704.076,VALID,27,VALID,30,VALID,0.815662,
2006-11-14, 19:35:00,VALID,917.085,VALID,0,VALID,66.6499,VALID,602.565,VALID,27.1548,VALID,71,VALID,1.47311,
2006-11-14, 19:36:00,VALID,917.082,VALID,0,VALID,67.5387,VALID,507.438,VALID,27.1063,VALID,24,VALID,1.47248,
2006-11-14, 19:37:00,VALID,917.06,VALID,0,VALID,68.4467,VALID,557.973,VALID,27.0772,VALID,349,VALID,1.40293,
2006-11-14, 19:38:00,VALID,917.045,VALID,0,VALID,68.5369,VALID,943.489,VALID,27.0769,VALID,4,VALID,1.31364,
2006-11-14, 19:39:00,VALID,917.022,VALID,0,VALID,68.7836,VALID,1004.43,VALID,27.1738,VALID,355,VALID,1.10738,
2006-11-14, 19:40:00,VALID,916.979,VALID,0,VALID,66.2976,VALID,569.571,VALID,27.1842,VALID,320,VALID,2.88472,
2006-11-14, 19:41:00,VALID,916.958,VALID,0,VALID,67.4637,VALID,716.54,VALID,26.9159,VALID,307,VALID,2.66061,
2006-11-14, 19:42:00,VALID,916.947,VALID,0,VALID,68.5586,VALID,716.642,VALID,26.815,VALID,329,VALID,1.58322,
2006-11-14, 19:43:00,VALID,916.94,VALID,0,VALID,67.4879,VALID,965.598,VALID,26.8412,VALID,360,VALID,2.51188,
2006-11-14, 19:44:00,VALID,916.898,VALID,0,VALID,67.1458,VALID,984.175,VALID,26.8254,VALID,31,VALID,1.58352,
2006-11-14, 19:45:00,VALID,916.881,VALID,0,VALID,68.4937,VALID,849.449,VALID,26.8206,VALID,303,VALID,3.89937,
2006-11-14, 19:46:00,VALID,916.859,VALID,0,VALID,70.2689,VALID,758.075,VALID,26.895,VALID,288,VALID,2.54615,
2006-11-14, 19:47:00,VALID,916.862,VALID,0,VALID,69.4258,VALID,854.594,VALID,26.9919,VALID,328,VALID,2.44459,
2006-11-14, 19:48:00,VALID,916.848,VALID,0,VALID,68.5064,VALID,941.434,VALID,26.9309,VALID,325,VALID,2.74861,
2006-11-14, 19:49:00,VALID,916.824,VALID,0,VALID,66.9678,VALID,943.319,VALID,26.8228,VALID,358,VALID,2.5668,
2006-11-14, 19:50:00,VALID,916.781,VALID,0,VALID,68.5738,VALID,928.121,VALID,26.7384,VALID,330,VALID,2.49943,
2006-11-14, 19:51:00,VALID,916.731,VALID,0,VALID,71.4349,VALID,913.331,VALID,26.838,VALID,283,VALID,2.11889,
2006-11-14, 19:52:00,VALID,916.699,VALID,0,VALID,68.1758,VALID,884.633,VALID,26.9537,VALID,297,VALID,3.58222,
2006-11-14, 19:53:00,VALID,916.682,VALID,0,VALID,69.2808,VALID,891.629,VALID,27.0639,VALID,265,VALID,1.58721,
2006-11-14, 19:54:00,VALID,916.676,VALID,0,VALID,68.7251,VALID,893.345,VALID,27.2838,VALID,292,VALID,2.21166,
2006-11-14, 19:55:00,VALID,916.669,VALID,0,VALID,69.2325,VALID,870.505,VALID,27.4483,VALID,346,VALID,1.77437,
2006-11-14, 19:56:00,VALID,916.641,VALID,0,VALID,69.1677,VALID,833.181,VALID,27.5392,VALID,358,VALID,1.79929,
2006-11-14, 19:57:00,VALID,916.594,VALID,0,VALID,64.6509,VALID,815.623,VALID,27.5036,VALID,48,VALID,1.98921,
2006-11-14, 19:58:00,VALID,916.583,VALID,0,VALID,66.8673,VALID,841.094,VALID,27.3639,VALID,17,VALID,2.3564,
2006-11-14, 19:59:00,VALID,916.581,VALID,0,VALID,67.3187,VALID,799.542,VALID,27.3319,VALID,358,VALID,2.22638,
2006-11-14, 20:00:00,VALID,916.53,VALID,0,VALID,67.3594,VALID,786.094,VALID,27.2382,VALID,331,VALID,2.52131,
2006-11-14, 20:01:00,VALID,916.531,VALID,0,VALID,66.9869,VALID,682.595,VALID,27.1961,VALID,329,VALID,2.25,
2006-11-14, 20:02:00,VALID,916.494,VALID,0,VALID,65.7305,VALID,711.412,VALID,27.1373,VALID,299,VALID,2.36955,
2006-11-14, 20:03:00,VALID,916.464,VALID,0,VALID,66.1425,VALID,670.03,VALID,27.0503,VALID,290,VALID,1.8967,
2006-11-14, 20:04:00,VALID,916.428,VALID,0,VALID,67.4624,VALID,546.171,VALID,27.1664,VALID,279,VALID,2.15272,
2006-11-14, 20:05:00,VALID,916.364,VALID,0,VALID,67.2285,VALID,565.564,VALID,27.2252,VALID,286,VALID,3.1976,
2006-11-14, 20:06:00,VALID,916.363,VALID,0,VALID,67.8312,VALID,525.098,VALID,27.1272,VALID,280,VALID,2.59854,
2006-11-14, 20:07:00,VALID,916.37,VALID,0,VALID,68.3704,VALID,576.227,VALID,27.2569,VALID,319,VALID,1.23642,
2006-11-14, 20:08:00,VALID,916.343,VALID,0,VALID,67.6595,VALID,758.415,VALID,27.3966,VALID,336,VALID,1.72496,
2006-11-14, 20:09:00,VALID,916.342,VALID,0,VALID,68.2966,VALID,630.583,VALID,27.318,VALID,13,VALID,1.66815,
2006-11-14, 20:10:00,VALID,916.307,VALID,0,VALID,68.2966,VALID,601.818,VALID,27.2181,VALID,324,VALID,1.95126,
2006-11-14, 20:11:00,VALID,916.295,VALID,0,VALID,66.173,VALID,838.547,VALID,27.1211,VALID,353,VALID,1.93715,
2006-11-14, 20:12:00,VALID,916.269,VALID,0,VALID,67.3035,VALID,822.585,VALID,27.0396,VALID,330,VALID,1.95064,
2006-11-14, 20:13:00,VALID,916.25,VALID,0,VALID,68.4212,VALID,842.47,VALID,27.0364,VALID,324,VALID,1.61808,
2006-11-14, 20:14:00,VALID,916.206,VALID,0,VALID,68.4619,VALID,860.758,VALID,27.0461,VALID,325,VALID,2.55131,
2006-11-14, 20:15:00,VALID,916.17,VALID,0,VALID,68.5751,VALID,861.217,VALID,27.0532,VALID,291,VALID,2.47602,
2006-11-14, 20:16:00,VALID,916.159,VALID,0,VALID,66.8305,VALID,852.013,VALID,27.1337,VALID,298,VALID,1.92454,
2006-11-14, 20:17:00,VALID,916.131,VALID,0,VALID,65.9378,VALID,857.056,VALID,27.2885,VALID,280,VALID,0.952217,
2006-11-14, 20:18:00,VALID,916.091,VALID,0,VALID,65.6135,VALID,809.544,VALID,27.5317,VALID,302,VALID,1.43529,
2006-11-14, 20:19:00,VALID,916.058,VALID,0,VALID,65.3757,VALID,833.742,VALID,27.5676,VALID,289,VALID,2.3244,
2006-11-14, 20:20:00,VALID,916.026,VALID,0,VALID,66.8495,VALID,878.096,VALID,27.4437,VALID,299,VALID,2.06622,
2006-11-14, 20:21:00,VALID,915.999,VALID,0,VALID,66.6944,VALID,871.694,VALID,27.6151,VALID,291,VALID,2.09581,
2006-11-14, 20:22:00,VALID,915.97,VALID,0,VALID,65.9429,VALID,914.112,VALID,27.776,VALID,281,VALID,2.0972,
2006-11-14, 20:23:00,VALID,915.969,VALID,0,VALID,65.6669,VALID,802.073,VALID,27.9643,VALID,6,VALID,1.72191,
2006-11-14, 20:24:00,VALID,915.924,VALID,0,VALID,66.4324,VALID,474.954,VALID,27.974,VALID,341,VALID,1.50581,
2006-11-14, 20:25:00,VALID,915.902,VALID,0,VALID,66.9093,VALID,591.493,VALID,27.9283,VALID,307,VALID,2.13849,
2006-11-14, 20:26:00,VALID,915.886,VALID,0,VALID,65.3401,VALID,907.999,VALID,27.8245,VALID,307,VALID,2.33984,
2006-11-14, 20:27:00,VALID,915.889,VALID,0,VALID,67.6583,VALID,779.862,VALID,27.7379,VALID,304,VALID,1.92809,
2006-11-14, 20:28:00,VALID,915.884,VALID,0,VALID,66.2442,VALID,738.004,VALID,27.8475,VALID,48,VALID,1.51491,
2006-11-14, 20:29:00,VALID,915.854,VALID,0,VALID,62.3569,VALID,851.266,VALID,27.9826,VALID,27,VALID,0.997396,
2006-11-14, 20:30:00,VALID,915.842,VALID,0,VALID,62.2743,VALID,956.377,VALID,28.2061,VALID,39,VALID,1.15807,
2006-11-14, 20:31:00,VALID,915.818,VALID,0,VALID,63.7544,VALID,648.43,VALID,28.4227,VALID,12,VALID,1.28379,
2006-11-14, 20:32:00,VALID,915.785,VALID,0,VALID,64.8048,VALID,934.54,VALID,28.4256,VALID,328,VALID,3.11585,
2006-11-14, 20:33:00,VALID,915.809,VALID,0,VALID,63.8384,VALID,892.122,VALID,28.0703,VALID,346,VALID,2.94931,
2006-11-14, 20:34:00,VALID,915.784,VALID,0,VALID,65.3401,VALID,890.135,VALID,27.8332,VALID,344,VALID,3.07865,
2006-11-14, 20:35:00,VALID,915.782,VALID,0,VALID,64.9396,VALID,896.112,VALID,27.5604,VALID,329,VALID,2.48855,
2006-11-14, 20:36:00,VALID,915.755,VALID,0,VALID,65.9352,VALID,855.07,VALID,27.5126,VALID,7,VALID,2.37082,
2006-11-14, 20:37:00,VALID,915.711,VALID,0,VALID,66.9805,VALID,540.772,VALID,27.4344,VALID,314,VALID,3.27493,
2006-11-14, 20:38:00,VALID,915.683,VALID,0,VALID,65.508,VALID,794.38,VALID,27.2702,VALID,342,VALID,1.69204,
2006-11-14, 20:39:00,VALID,915.634,VALID,0,VALID,67.5235,VALID,873.375,VALID,27.3542,VALID,297,VALID,2.91797,
2006-11-14, 20:40:00,VALID,915.621,VALID,0,VALID,66.674,VALID,700.697,VALID,27.351,VALID,280,VALID,2.97976,
2006-11-14, 20:41:00,VALID,915.617,VALID,0,VALID,67.1916,VALID,767.839,VALID,27.3923,VALID,286,VALID,3.08594,
2006-11-14, 20:42:00,VALID,915.606,VALID,0,VALID,68.4657,VALID,652.251,VALID,27.4925,VALID,285,VALID,3.54762,
2006-11-14, 20:43:00,VALID,915.603,VALID,0,VALID,66.6969,VALID,535.609,VALID,27.4379,VALID,299,VALID,3.48251,
2006-11-14, 20:44:00,VALID,915.585,VALID,0,VALID,67.1318,VALID,560.979,VALID,27.4537,VALID,294,VALID,2.69215,
2006-11-14, 20:45:00,VALID,915.593,VALID,0,VALID,65.0807,VALID,725.065,VALID,27.4951,VALID,335,VALID,2.50037,
2006-11-14, 20:46:00,VALID,915.565,VALID,0,VALID,65.8602,VALID,479.997,VALID,27.4218,VALID,345,VALID,2.27825,
2006-11-14, 20:47:00,VALID,915.556,VALID,0,VALID,64.5021,VALID,551.435,VALID,27.3277,VALID,323,VALID,2.32732,
2006-11-14, 20:48:00,VALID,915.493,VALID,0,VALID,63.5586,VALID,641.366,VALID,27.2303,VALID,306,VALID,1.45347,
2006-11-14, 20:49:00,VALID,915.507,VALID,0,VALID,66.2048,VALID,751.656,VALID,27.4376,VALID,289,VALID,2.10774,
2006-11-14, 20:50:00,VALID,915.493,VALID,0,VALID,65.7941,VALID,723.672,VALID,27.6312,VALID,334,VALID,2.40848,
2006-11-14, 20:51:00,VALID,915.491,VALID,0,VALID,66.3155,VALID,377.229,VALID,27.5831,VALID,306,VALID,1.99902,
2006-11-14, 20:52:00,VALID,915.467,VALID,0,VALID,66.4248,VALID,620.632,VALID,27.4842,VALID,303,VALID,2.69957,
2006-11-14, 20:53:00,VALID,915.478,VALID,0,VALID,68.1071,VALID,746.936,VALID,27.499,VALID,296,VALID,1.79427,
2006-11-14, 20:54:00,VALID,915.471,VALID,0,VALID,65.6898,VALID,731.568,VALID,27.7939,VALID,51,VALID,1.27584,
2006-11-14, 20:55:00,VALID,915.46,VALID,0,VALID,62.8096,VALID,752.387,VALID,27.9617,VALID,52,VALID,2.25964,
2006-11-14, 20:56:00,VALID,915.459,VALID,0,VALID,63.0881,VALID,760.164,VALID,27.7968,VALID,320,VALID,2.97898,
2006-11-14, 20:57:00,VALID,915.434,VALID,0,VALID,64.5238,VALID,750.349,VALID,27.6287,VALID,318,VALID,2.09133,
2006-11-14, 20:58:00,VALID,915.432,VALID,0,VALID,65.0515,VALID,745.408,VALID,27.6844,VALID,353,VALID,1.49352,
2006-11-14, 20:59:00,VALID,915.407,VALID,0,VALID,63.8574,VALID,719.257,VALID,27.7674,VALID,316,VALID,1.71112,
2006-11-14, 21:00:00,VALID,915.43,VALID,0,VALID,64.0978,VALID,662.269,VALID,27.781,VALID,4,VALID,2.59245,
2006-11-14, 21:01:00,VALID,915.39,VALID,0,VALID,63.2992,VALID,700.884,VALID,27.6326,VALID,27,VALID,3.14334,
2006-11-14, 21:02:00,VALID,915.363,VALID,0,VALID,64.6357,VALID,743.93,VALID,27.4641,VALID,39,VALID,2.32517,
2006-11-14, 21:03:00,VALID,915.334,VALID,0,VALID,63.1708,VALID,753.219,VALID,27.4509,VALID,3,VALID,3.04759,
2006-11-14, 21:04:00,VALID,915.311,VALID,0,VALID,63.8727,VALID,739.057,VALID,27.416,VALID,5,VALID,2.19836,
2006-11-14, 21:05:00,VALID,915.3,VALID,0,VALID,63.5688,VALID,747.208,VALID,27.4544,VALID,30,VALID,1.62391,
2006-11-14, 21:06:00,VALID,915.27,VALID,0,VALID,63.3844,VALID,764.086,VALID,27.6524,VALID,47,VALID,1.54824,
2006-11-14, 21:07:00,VALID,915.255,VALID,0,VALID,63.5815,VALID,749.551,VALID,27.8169,VALID,25,VALID,2.1412,
2006-11-14, 21:08:00,VALID,915.252,VALID,0,VALID,64.1512,VALID,756.717,VALID,27.8159,VALID,30,VALID,2.56957,
2006-11-14, 21:09:00,VALID,915.255,VALID,0,VALID,64.7094,VALID,716.506,VALID,27.8353,VALID,40,VALID,1.62411,
2006-11-14, 21:10:00,VALID,915.24,VALID,0,VALID,64.9447,VALID,535.881,VALID,27.9096,VALID,9,VALID,1.95117,
2006-11-14, 21:11:00,VALID,915.269,VALID,0,VALID,66.3231,VALID,456.071,VALID,27.9643,VALID,327,VALID,1.44023,
2006-11-14, 21:12:00,VALID,915.251,VALID,0,VALID,65.4622,VALID,655.171,VALID,28.062,VALID,318,VALID,2.33576,
2006-11-14, 21:13:00,VALID,915.261,VALID,0,VALID,62.9838,VALID,490.814,VALID,27.9459,VALID,333,VALID,1.99509,